DW0126 Weather Reports


Display with metric or nautical units.
time (UTC)temp
F
wind
direction
speed
MPH
gust
MPH
rain 1hr
in
rain 24hr
in
rain mn
in
humidity
%
barometer
mb
20260503001715 76 23 5.0 8.0 0.00 0.00 0.00 45 1011.7
20260503000715 76 45 4.0 7.0 0.00 0.00 0.00 45 1011.7
20260502235715 76 23 4.0 9.0 0.00 0.00 0.00 45 1011.8
20260502234735 75 23 5.0 9.0 0.00 0.00 0.00 46 1012.0
20260502233715 76 45 8.0 10.0 0.00 0.00 0.00 45 1012.2
20260502232756 76 23 4.0 7.0 0.00 0.00 0.00 46 1012.3
20260502231715 77 0 5.0 9.0 0.00 0.00 0.00 47 1012.4
20260502230755 76 45 6.0 10.0 0.00 0.00 0.00 48 1012.5
20260502225755 77 23 5.0 9.0 0.00 0.00 0.00 47 1012.7
20260502224715 76 23 4.0 7.0 0.00 0.00 0.00 49 1012.8
20260502223735 76 23 7.0 10.0 0.00 0.00 0.00 49 1012.8
20260502222735 75 0 4.0 6.0 0.00 0.00 0.00 50 1013.0
20260502221715 75 23 4.0 8.0 0.00 0.00 0.00 51 1013.1
20260502220715 75 23 4.0 6.0 0.00 0.00 0.00 51 1013.3
20260502215715 75 23 5.0 8.0 0.00 0.00 0.00 51 1013.4
20260502214715 74 0 7.0 10.0 0.00 0.00 0.00 51 1013.4
20260502213715 74 45 5.0 9.0 0.00 0.00 0.00 52 1013.6
20260502212715 73 45 6.0 9.0 0.00 0.00 0.00 52 1013.6
20260502211715 73 90 7.0 12.0 0.00 0.00 0.00 51 1013.8
20260502210715 72 68 5.0 8.0 0.00 0.00 0.00 52 1013.9
20260502205715 73 0 7.0 14.0 0.00 0.00 0.00 51 1014.0
20260502204756 73 45 5.0 11.0 0.00 0.00 0.00 52 1014.1
20260502203755 72 23 6.0 9.0 0.00 0.00 0.00 52 1014.1
20260502202715 72 0 6.0 9.0 0.00 0.00 0.00 51 1014.2
20260502201715 72 0 5.0 11.0 0.00 0.00 0.00 54 1014.3
20260502200715 71 23 8.0 12.0 0.00 0.00 0.00 54 1014.4
20260502195715 70 23 6.0 13.0 0.00 0.00 0.00 56 1014.3
20260502194715 71 68 8.0 13.0 0.00 0.00 0.00 56 1014.5
20260502193715 69 68 4.0 8.0 0.00 0.00 0.00 59 1014.6
20260502192715 68 90 6.0 11.0 0.00 0.00 0.00 60 1014.8
20260502191715 68 45 7.0 10.0 0.00 0.00 0.00 60 1014.8
20260502190715 68 45 4.0 7.0 0.00 0.00 0.00 61 1014.9
20260502185715 67 45 5.0 7.0 0.00 0.00 0.00 63 1015.0
20260502184736 66 68 7.0 12.0 0.00 0.00 0.00 65 1015.0
20260502183715 65 68 6.0 8.0 0.00 0.00 0.00 66 1015.0
20260502182715 64 23 5.0 8.0 0.00 0.00 0.00 67 1015.3
20260502181715 65 23 7.0 12.0 0.00 0.00 0.00 67 1015.3
20260502180715 63 45 5.0 13.0 0.00 0.00 0.00 69 1015.4
20260502163715 54 293 4.0 5.0 0.00 0.00 0.00 87 1015.8
20260502162735 53 248 2.0 4.0 0.00 0.00 0.00 88 1015.8
20260502161715 53 338 1.0 3.0 0.00 0.00 0.00 89 1015.8
20260502160755 52 315 2.0 3.0 0.00 0.00 0.00 89 1015.9
20260502151715 51 23 3.0 5.0 0.00 0.00 0.00 91 1016.0
20260502150715 51 45 4.0 5.0 0.00 0.00 0.00 90 1016.0
20260502130715 51 90 2.0 3.0 0.00 0.00 0.00 90 1015.9
20260502123715 51 23 2.0 3.0 0.00 0.00 0.00 90 1015.9
20260502122715 51 68 2.0 3.0 0.00 0.00 0.00 90 1015.9
20260502121716 51 0.0 0.0 0.00 0.00 0.00 90 1016.2
20260502120715 51 0.0 0.0 0.00 0.00 0.00 89 1016.2
20260502115715 51 0.0 1.0 0.00 0.00 0.00 90 1016.4
20260502114715 51 0.0 0.0 0.00 0.00 0.00 90 1016.4
20260502113715 51 0.0 0.0 0.00 0.00 0.00 90 1016.4
20260502112715 51 0.0 0.0 0.00 0.00 0.00 89 1016.4
20260502111735 51 0.0 1.0 0.00 0.00 0.00 89 1016.6
20260502110715 51 0.0 0.0 0.00 0.00 0.00 90 1016.5
20260502105715 51 90 1.0 2.0 0.00 0.00 0.00 90 1016.6
20260502104715 51 225 2.0 3.0 0.00 0.00 0.00 89 1016.5
20260502103715 51 225 2.0 3.0 0.00 0.00 0.00 89 1016.6
20260502102715 51 225 3.0 4.0 0.00 0.00 0.00 89 1016.9
20260502101735 51 225 3.0 5.0 0.00 0.00 0.00 89 1017.1
20260502100715 51 248 2.0 3.0 0.00 0.00 0.00 89 1017.3
20260502090716 51 0.0 0.0 0.00 0.00 0.00 89 1016.6
20260502070716 51 203 1.0 2.0 0.00 0.00 0.00 87 1016.5
20260502065717 51 248 2.0 4.0 0.00 0.00 0.00 87 1016.3
20260502064717 51 248 2.0 3.0 0.00 0.00 0.00 86 1016.2
20260502063717 51 225 2.0 4.0 0.00 0.00 0.00 86 1016.2
20260502062717 52 248 3.0 6.0 0.00 0.00 0.00 85 1016.3
20260502061737 52 248 1.0 2.0 0.00 0.00 0.00 85 1016.1
20260502060717 52 203 1.0 2.0 0.00 0.00 0.00 85 1016.1
20260502055717 52 225 4.0 6.0 0.00 0.00 0.00 84 1016.1
20260502054737 52 248 4.0 5.0 0.00 0.00 0.00 84 1016.0
20260502053717 53 158 2.0 4.0 0.00 0.00 0.00 83 1016.1
20260502052717 53 225 2.0 4.0 0.00 0.00 0.00 82 1016.1
20260502051717 53 248 4.0 6.0 0.00 0.00 0.00 81 1016.1
20260502050717 54 248 2.0 5.0 0.00 0.00 0.00 81 1016.0
20260502045717 54 225 4.0 6.0 0.00 0.00 0.00 80 1016.0
20260502044716 55 225 5.0 8.0 0.00 0.00 0.00 79 1015.9
20260502043717 55 225 4.0 7.0 0.00 0.00 0.00 78 1015.7
20260502042717 56 248 3.0 5.0 0.00 0.00 0.00 77 1015.6
20260502041717 56 225 4.0 7.0 0.00 0.00 0.00 77 1015.4
20260502040717 57 225 4.0 6.0 0.00 0.00 0.00 75 1015.2
20260502035717 57 225 3.0 7.0 0.00 0.00 0.00 74 1015.0
20260502034737 58 248 3.0 5.0 0.00 0.00 0.00 73 1014.9
20260502033717 58 225 4.0 7.0 0.00 0.00 0.00 72 1014.7
20260502032736 59 248 4.0 6.0 0.00 0.00 0.00 71 1014.5
20260502031717 60 248 3.0 6.0 0.00 0.00 0.00 70 1014.3
20260502030717 60 225 3.0 5.0 0.00 0.00 0.00 68 1014.3
20260502025716 61 225 4.0 6.0 0.00 0.00 0.00 67 1014.2
20260502024717 62 225 4.0 6.0 0.00 0.00 0.00 66 1013.9
20260502023717 62 225 4.0 5.0 0.00 0.00 0.00 65 1013.7
20260502022737 63 225 4.0 9.0 0.00 0.00 0.00 64 1013.6
20260502021716 64 248 5.0 7.0 0.00 0.00 0.00 63 1013.4
20260502020717 65 248 3.0 7.0 0.00 0.00 0.00 62 1013.5
20260502015756 65 203 4.0 7.0 0.00 0.00 0.00 62 1013.4
20260502014717 66 225 4.0 6.0 0.00 0.00 0.00 62 1013.4
20260502013737 67 225 5.0 9.0 0.00 0.00 0.00 60 1013.4
20260502012716 67 225 8.0 11.0 0.00 0.00 0.00 59 1013.5
20260502011717 68 225 7.0 11.0 0.00 0.00 0.00 58 1013.4
20260502010717 70 203 6.0 10.0 0.00 0.00 0.00 57 1013.4
20260502005757 71 225 5.0 12.0 0.00 0.00 0.00 57 1013.4
20260502004737 71 225 6.0 8.0 0.00 0.00 0.00 57 1013.4
20260502003717 72 225 7.0 11.0 0.00 0.00 0.00 56 1013.4
20260502002736 72 225 7.0 11.0 0.00 0.00 0.00 58 1013.2